User: anonymous   Login
Location: Unspecified
(0.0000°N, 0.0000°E)
Time: 07:58:14
(UTC+00:00)
Language:

Tiangong 1 - Orbit

View from above orbital plane
View from above orbital plane
View from above satellite
View from above satellite

Ground track
Ground track

The orbit data is extracted from the following two-line orbital elements,

1 37820U 11053A   17022.12171142  .00021050  00000-0  16059-3 0  9993
2 37820  42.7607   9.7479 0015929 128.3692 335.1748 15.71616671304932
Epoch (UTC): 22 January 2017 02:55:15
Eccentricity: 0.0015929
inclination: 42.7607°
perigee height: 343 km
apogee height: 365 km
right ascension of ascending node: 9.7479°
argument of perigee: 128.3692°
revolutions per day: 15.71616671
mean anomaly at epoch: 335.1748°
orbit number at epoch: 30493

The dashed part of the orbit path shows where the satellite is in the earth's shadow,  

DLR